TimeEDT,TemperatureF,Dew PointF,Humidity,Sea Level PressureIn,VisibilityMPH,Wind Direction,Wind SpeedMPH,Gust SpeedMPH,PrecipitationIn,Events,Conditions,WindDirDegrees,DateUTC
12:53 AM,51.1,46.0,83,29.85,10.0,North,6.9,-,N/A,,Overcast,350,2012-10-28 04:53:00
1:53 AM,50.0,45.0,83,29.83,10.0,Variable,6.9,-,N/A,,Overcast,0,2012-10-28 05:53:00
2:53 AM,50.0,46.0,86,29.82,10.0,Variable,3.5,-,N/A,,Overcast,0,2012-10-28 06:53:00
3:53 AM,50.0,46.0,86,29.81,10.0,NNW,4.6,-,N/A,,Overcast,330,2012-10-28 07:53:00
4:53 AM,51.1,46.0,83,29.81,10.0,Variable,3.5,-,N/A,,Overcast,0,2012-10-28 08:53:00
5:53 AM,51.1,45.0,80,29.81,10.0,Calm,Calm,-,N/A,,Overcast,0,2012-10-28 09:53:00
6:53 AM,51.1,45.0,80,29.83,10.0,Calm,Calm,-,N/A,,Overcast,0,2012-10-28 10:53:00
7:53 AM,51.1,45.0,80,29.83,10.0,Variable,6.9,-,N/A,,Overcast,0,2012-10-28 11:53:00
8:26 AM,51.8,44.6,76,29.84,10.0,NNW,3.5,-,N/A,,Overcast,340,2012-10-28 12:26:00
8:35 AM,51.8,44.6,76,29.84,10.0,Variable,4.6,-,N/A,,Overcast,0,2012-10-28 12:35:00
8:53 AM,51.1,45.0,80,29.84,10.0,Variable,3.5,-,N/A,,Overcast,0,2012-10-28 12:53:00
9:53 AM,52.0,45.0,77,29.86,10.0,Variable,5.8,-,N/A,,Overcast,0,2012-10-28 13:53:00
10:53 AM,52.0,44.1,74,29.86,10.0,Variable,5.8,-,N/A,,Overcast,0,2012-10-28 14:53:00
11:53 AM,53.1,44.1,71,29.86,10.0,North,10.4,24.2,N/A,,Overcast,350,2012-10-28 15:53:00
1:53 PM,53.1,43.0,69,29.85,10.0,Variable,5.8,-,N/A,,Overcast,0,2012-10-28 17:53:00
2:53 PM,53.1,43.0,69,29.85,10.0,Variable,5.8,20.7,N/A,,Overcast,0,2012-10-28 18:53:00
3:53 PM,51.1,42.1,71,29.86,10.0,NNW,11.5,19.6,N/A,,Overcast,330,2012-10-28 19:53:00
4:53 PM,50.0,41.0,71,29.88,10.0,NNW,8.1,21.9,N/A,,Overcast,340,2012-10-28 20:53:00
5:27 PM,51.8,39.2,62,29.90,10.0,NNW,12.7,20.7,N/A,,Overcast,340,2012-10-28 21:27:00
5:53 PM,51.1,39.9,66,29.88,10.0,NNW,11.5,21.9,N/A,,Overcast,330,2012-10-28 21:53:00
6:29 PM,50.0,39.2,66,29.92,10.0,NNW,9.2,24.2,N/A,,Overcast,340,2012-10-28 22:29:00
6:49 PM,50.0,39.2,66,29.92,10.0,NNW,8.1,23.0,N/A,,Overcast,340,2012-10-28 22:49:00
6:53 PM,50.0,39.0,66,29.91,10.0,North,11.5,23.0,N/A,,Overcast,350,2012-10-28 22:53:00
7:53 PM,50.0,37.9,63,29.92,10.0,NNW,8.1,25.3,N/A,,Overcast,340,2012-10-28 23:53:00
8:53 PM,48.9,37.9,66,29.93,10.0,North,9.2,20.7,N/A,,Overcast,350,2012-10-29 00:53:00
9:53 PM,48.9,37.9,66,29.93,10.0,NNW,10.4,21.9,N/A,,Overcast,340,2012-10-29 01:53:00
10:53 PM,48.0,37.0,66,29.94,-9999.0,NNW,15.0,25.3,N/A,,Unknown,340,2012-10-29 02:53:00
11:53 PM,48.0,36.0,63,29.94,10.0,North,9.2,23.0,N/A,,Overcast,350,2012-10-29 03:53:00